{"data":{"norad_id":81652,"epoch":"2026-05-24T00:46:41.907072Z","epoch_age_seconds":158800,"freshness":"FRESH","line1":"1 81652U          26144.03242948  .00000412  00000+0  54289-3 0  9998","line2":"2 81652 102.1443  71.1729 0365577 356.7834  13.6990 13.44601501600464","mean_motion":13.44601501,"eccentricity":0.0365577,"inclination_deg":102.1443,"raan_deg":71.1729,"arg_perigee_deg":356.7834,"mean_anomaly_deg":13.699,"bstar":0.00054289,"rev_number":60046,"period_min":107.09492730218,"perigee_km":819.08927818113,"apogee_km":1365.2850163377,"semimajor_km":7470.3241472594,"source":"CELESTRAK","updated_at":"2026-05-25T13:38:11.080624Z"}}